[Iaude] MPEC J53: 2024 JY [a=1.32,e=0.74,i=31.0,H=25.3]
    mpec at cfa.harvard.edu 
    mpec at cfa.harvard.edu
       
    Fri May  3 23:17:54 EDT 2024
    
    
  
M.P.E.C. 2024-J53                                   Issued 2024 May 4, 03:16 UT
     The Minor Planet Electronic Circulars contain information on unusual
         minor planets, routine data on comets and natural satellites,
         and occasional editorial announcements.  They are published
    on behalf of Division F of the International Astronomical Union by the
          Minor Planet Center, Smithsonian Astrophysical Observatory,
                          Cambridge, MA 02138, U.S.A.
			  
             Prepared using the Tamkin Foundation Computer Network
                              MPC at CFA.HARVARD.EDU
            URL https://www.minorplanetcenter.net/    ISSN 1523-6714
                                    2024 JY                                     
Observations:
     K24J00Y* C2024 05 02.49734616 48 33.077-12 41 47.48         20.15wXEJ053F51
     K24J00Y  C2024 05 02.50881116 48 34.957-12 45 07.77         20.13wXEJ053F51
     K24J00Y  C2024 05 02.52025716 48 36.856-12 48 30.77         20.39wXEJ053F51
     K24J00Y  C2024 05 02.61935616 48 54.323-13 18 33.83         19.61GVEJ053F52
     K24J00Y KC2024 05 03.02851016 51 08.06 -15 49 37.6          19.4 GXEJ053I93
     K24J00Y KC2024 05 03.03257016 51 09.23 -15 51 22.6          19.3 GXEJ053I93
     K24J00Y KC2024 05 03.03657116 51 10.41 -15 53 04.8          19.0 GXEJ053I93
     K24J00Y KC2024 05 03.54981 16 55 05.34 -20 22 59.9          18.9 VZEJ053R56
     K24J00Y KC2024 05 03.55734 16 55 09.14 -20 28 04.2          19.0 VZEJ053R56
     K24J00Y KC2024 05 03.56514 16 55 13.13 -20 33 24.4          19.1 VZEJ053R56
     K24J00Y KB2024 05 03.63726516 56 00.463-21 29 54.10         19.7 GXEJ053Q06
     K24J00Y KB2024 05 03.64517916 56 04.796-21 35 45.20         20.3 GXEJ053Q06
     K24J00Y KB2024 05 03.65308916 56 09.174-21 41 37.10         20.3 GXEJ053Q06
     K24J00Y 0B2024 05 04.04383 17 01 34.483-27 36 47.05         18.1 VZEJ053M49
     K24J00Y 0B2024 05 04.04625 17 01 36.792-27 39 32.18         18.2 VZEJ053M49
     K24J00Y 0B2024 05 04.04867 17 01 39.072-27 42 16.99         18.4 VZEJ053M49
Observer details:
F51 Pan-STARRS 1, Haleakala.  Observers J. Herman, T. Lowe, P. Minguez, A.
    Schultz, I. Smith.  Measurers K. Chambers, T. de Boer, J. Fairlamb, H.
    Gao, M. Huber, C.-C. Lin, E. Magnier, Y. Ramanjooloo, R. Wainscoat, R.
    Weryk.  1.8-m Ritchey-Chretien + CCD.
F52 Pan-STARRS 2, Haleakala.  Observers J. Herman, T. Lowe, P. Minguez, A.
    Schultz, I. Smith.  Measurers K. Chambers, T. de Boer, J. Fairlamb, H.
    Gao, M. Huber, C.-C. Lin, E. Magnier, Y. Ramanjooloo, R. Wainscoat, R.
    Weryk.  1.8-m Ritchey-Chretien + CCD.
I93 St Pardon de Conques.  Observer F. Losse.  0.40-m f/3.7 reflector + CCD.
M49 IAS Remote Observatory, Hakos.  Observers D. Husar, M. Junius.  Measurer
    D. Husar.  0.25-m f/4.5 reflector + CMO.
Q06 Tarui Observatory, Tarui.  Observer H. Watanabe.  0.35-m f/1.9 Schmidt-
    Cassegrain + CMO.
R56 Scott Street Observatory, Lake Tekapo.  Observer A. Vilquin Barrajon.
    0.36-m f/2.2 reflector + CCD.
Orbital elements:
2024 JY                                                  Earth MOID = 0.0106 AU
Epoch 2024 Mar. 31.0 TT = JDT 2460400.5                 MPC                     
M 305.93728              (2000.0)            P               Q                  
n   0.64724403     Peri.  304.70148     +0.89979604     +0.24753765             
a   1.3236018      Node    44.29428     +0.07005960     +0.73082527             
e   0.7407207      Incl.   30.96367     -0.43064921     +0.63609712             
P   1.52           H   25.37          G   0.15           U   8                  
Residuals in seconds of arc
240502 F51  0.0   0.3+    240503 I93  0.3+  0.2+    240503 Q06  0.8-  0.7+
240502 F51  0.1-  0.6+    240503 R56  0.3-  0.9+    240504 M49  0.2+  0.1-
240502 F51  0.0   0.8-    240503 R56  0.3-  1.4+    240504 M49  0.5+  0.3-
240502 F52  0.2+  0.3-    240503 R56  0.2+  1.0-    240504 M49  0.3+  0.2+
240503 I93  0.1+  0.2-    240503 Q06  0.0   0.0
240503 I93  0.0   0.8-    240503 Q06  0.6-  0.5-
Ephemeris:
2024 JY                  a,e,i = 1.32, 0.74, 31                  q = 0.3432
Date    TT    R. A. (2000) Decl.     Delta      r    Elong.  Phase     V
2024 04 04    16 27 10.9 -00 34 23   0.5390  1.3889   126.3    35.5    26.2
...
2024 04 19    16 36 13.1 -01 13 37   0.2754  1.2206   137.1    34.0    24.4
...
2024 04 27    16 40 28.5 -03 25 20   0.1397  1.1217   143.4    32.3    22.7
...
2024 05 03    16 50 53.9 -15 34 11   0.04059 1.0430   148.8    30.1    19.8
2024 05 04    17 00 46.6 -26 47 04   0.02519 1.0295   146.7    32.5    18.8
2024 05 05    18 04 00.4 -62 30 40   0.01331 1.0158   122.7    56.7    18.1
...
2024 05 11    04 32 04.6 -08 37 51   0.09545 0.9314    33.0   143.8    27.5
...
2024 05 19    04 33 40.1 -03 53 50   0.2307  0.8121    26.6   146.0    29.5
...
2024 06 03    04 30 31.5 +00 49 27   0.5131  0.5703    21.7   138.8    29.4
A. U. Tomatic                (C) Copyright 2024 MPC           M.P.E.C. 2024-J53
    
    
More information about the Iaude
mailing list